GW4941 Weather Reports


time (UTC)temp
C
wind
direction
speed
KPH
gust
KPH
rain 1hr
cm
rain 24hr
cm
rain mn
cm
humidity
%
barometer
mb
20260502152211 10 109 4.8 11.3 0.00 0.00 0.00 44 1017.6
20260502151709 10 239 3.2 9.7 0.00 0.00 0.00 49 1017.9
20260502151206 10 71 3.2 11.3 0.00 0.00 0.00 47 1017.9
20260502150703 10 11 1.6 11.3 0.00 0.00 0.00 45 1017.8
20260502150159 9 315 6.4 11.3 0.00 0.00 0.00 57 1018.0
20260502140123 7 316 3.2 11.3 0.00 0.00 0.00 71 1017.9
20260502130548 3 239 0.0 0.0 0.00 0.00 0.00 99 1018.0
20260502123531 1 239 0.0 0.0 0.00 0.00 0.00 99 1018.2
20260502123028 1 239 0.0 0.0 0.00 0.00 0.00 99 1018.1
20260502122525 1 239 0.0 0.0 0.00 0.00 0.00 99 1018.2
20260502122022 1 239 0.0 0.0 0.00 0.00 0.00 99 1018.4
20260502121519 1 239 0.0 0.0 0.00 0.00 0.00 99 1018.4
20260502121017 1 239 0.0 0.0 0.00 0.00 0.00 99 1018.5
20260502120513 0 218 0.0 0.0 0.00 0.00 0.00 99 1018.2
20260502115508 0 218 0.0 0.0 0.00 0.00 0.00 99 1018.3
20260502115003 0 218 0.0 0.0 0.00 0.00 0.00 99 1018.2
20260502114500 0 218 0.0 0.0 0.00 0.00 0.00 99 1018.3
20260502113957 0 218 0.0 0.0 0.00 0.00 0.00 99 1018.4
20260502113455 0 217 0.0 0.0 0.00 0.00 0.00 99 1018.2
20260502112954 0 218 0.0 0.0 0.00 0.00 0.00 99 1018.1
20260502112451 0 218 1.6 1.6 0.00 0.00 0.00 99 1018.1
20260502111948 0 258 0.0 0.0 0.00 0.00 0.00 99 1018.1
20260502111445 0 259 0.0 0.0 0.00 0.00 0.00 99 1018.0
20260502110942 0 259 0.0 0.0 0.00 0.00 0.00 99 1018.0
20260502110440 0 260 0.0 0.0 0.00 0.00 0.00 99 1017.9
20260502105937 0 260 0.0 0.0 0.00 0.00 0.00 98 1018.1
20260502105435 0 260 0.0 0.0 0.00 0.00 0.00 98 1018.3
20260502104933 0 260 0.0 0.0 0.00 0.00 0.00 98 1018.4
20260502104429 0 260 0.0 0.0 0.00 0.00 0.00 98 1018.4
20260502103926 0 260 0.0 0.0 0.00 0.00 0.00 98 1018.2
20260502103425 0 260 0.0 0.0 0.00 0.00 0.00 98 1018.1
20260502102921 0 260 0.0 0.0 0.00 0.00 0.00 98 1018.3
20260502102417 0 260 0.0 0.0 0.00 0.00 0.00 98 1018.2
20260502101915 0 260 0.0 0.0 0.00 0.00 0.00 98 1018.3
20260502101413 0 260 0.0 0.0 0.00 0.00 0.00 98 1018.2
20260502100911 0 260 0.0 0.0 0.00 0.00 0.00 98 1018.2
20260502100410 0 260 0.0 0.0 0.00 0.00 0.00 98 1018.2
20260502091343 0 216 0.0 0.0 0.00 0.00 0.00 98 1018.3
20260502090841 0 216 0.0 0.0 0.00 0.00 0.00 98 1018.2
20260502090338 0 216 0.0 0.0 0.00 0.00 0.00 98 1018.2
20260502071233 0 259 0.0 0.0 0.00 0.00 0.00 97 1017.8
20260502070731 0 259 0.0 0.0 0.00 0.00 0.00 97 1017.7
20260502070228 0 259 0.0 0.0 0.00 0.00 0.00 97 1017.7
20260502065726 0 259 0.0 0.0 0.00 0.00 0.00 97 1017.8
20260502065224 0 259 0.0 0.0 0.00 0.00 0.00 97 1017.9
20260502064723 0 259 0.0 0.0 0.00 0.00 0.00 97 1018.1
20260502064220 1 259 0.0 0.0 0.00 0.00 0.00 97 1017.9
20260502063717 1 259 0.0 0.0 0.00 0.00 0.00 97 1018.1
20260502063215 1 259 0.0 0.0 0.00 0.00 0.00 97 1018.2
20260502062712 1 259 0.0 0.0 0.00 0.00 0.00 97 1018.2
20260502062209 1 259 0.0 0.0 0.00 0.00 0.00 97 1018.1
20260502061708 1 259 0.0 0.0 0.00 0.00 0.00 97 1018.2
20260502061205 1 259 0.0 0.0 0.00 0.00 0.00 97 1018.2
20260502060700 1 260 0.0 0.0 0.00 0.00 0.00 97 1018.4
20260502060157 1 260 0.0 0.0 0.00 0.00 0.00 97 1018.2
20260502055654 1 260 0.0 0.0 0.00 0.00 0.00 97 1018.3
20260502055152 1 260 0.0 0.0 0.00 0.00 0.00 97 1018.6
20260502054651 1 260 0.0 0.0 0.00 0.00 0.00 97 1018.4
20260502054148 1 260 0.0 0.0 0.00 0.00 0.00 97 1018.3
20260502053645 1 260 0.0 0.0 0.00 0.00 0.00 97 1018.3
20260502053142 1 260 0.0 0.0 0.00 0.00 0.00 97 1018.3
20260502052640 2 260 0.0 0.0 0.00 0.00 0.00 96 1018.4
20260502052138 2 260 0.0 0.0 0.00 0.00 0.00 96 1018.7
20260502051636 2 260 0.0 0.0 0.00 0.00 0.00 96 1018.5
20260502051134 2 260 0.0 0.0 0.00 0.00 0.00 96 1018.6
20260502050630 2 260 0.0 0.0 0.00 0.00 0.00 96 1018.6
20260502050127 2 260 0.0 0.0 0.00 0.00 0.00 96 1018.8
20260502045623 2 260 0.0 0.0 0.00 0.00 0.00 96 1018.7
20260502045121 2 260 0.0 0.0 0.00 0.00 0.00 96 1018.7
20260502044617 2 260 0.0 0.0 0.00 0.00 0.00 96 1018.7
20260502044114 2 260 0.0 0.0 0.00 0.00 0.00 96 1018.7
20260502043612 2 260 0.0 0.0 0.00 0.00 0.00 95 1018.6
20260502043103 2 260 0.0 0.0 0.00 0.00 0.00 95 1018.8
20260502042602 2 259 0.0 0.0 0.00 0.00 0.00 95 1018.8
20260502042100 3 259 0.0 0.0 0.00 0.00 0.00 95 1018.7
20260502041558 3 259 0.0 0.0 0.00 0.00 0.00 95 1018.5
20260502041054 3 259 0.0 0.0 0.00 0.00 0.00 94 1018.5
20260502040551 3 260 0.0 0.0 0.00 0.00 0.00 94 1018.5
20260502040048 3 260 0.0 0.0 0.00 0.00 0.00 94 1018.5
20260502035544 3 260 0.0 0.0 0.00 0.00 0.00 94 1018.3
20260502035042 3 260 0.0 0.0 0.00 0.00 0.00 94 1018.4
20260502034540 3 259 0.0 0.0 0.00 0.00 0.00 93 1018.4
20260502034038 4 259 0.0 0.0 0.00 0.00 0.00 93 1018.5
20260502033536 4 259 0.0 0.0 0.00 0.00 0.00 93 1018.6
20260502033033 4 259 0.0 0.0 0.00 0.00 0.00 93 1018.3
20260502032528 4 259 0.0 0.0 0.00 0.00 0.00 92 1018.4
20260502032026 5 259 0.0 0.0 0.00 0.00 0.00 91 1018.3
20260502031523 5 259 0.0 0.0 0.00 0.00 0.00 91 1018.4
20260502031021 5 259 0.0 0.0 0.00 0.00 0.00 91 1018.5
20260502030520 5 258 0.0 0.0 0.00 0.00 0.00 89 1018.5
20260502030017 6 257 0.0 0.0 0.00 0.00 0.00 88 1018.4
20260502025514 6 257 0.0 0.0 0.00 0.00 0.00 87 1018.4
20260502025012 6 257 1.6 1.6 0.00 0.00 0.00 87 1018.4
20260502024509 6 246 0.0 0.0 0.00 0.00 0.00 87 1018.4
20260502024008 6 245 0.0 0.0 0.00 0.00 0.00 86 1018.3
20260502023505 6 245 0.0 0.0 0.00 0.00 0.00 84 1018.2
20260502023002 6 245 0.0 0.0 0.00 0.00 0.00 83 1018.0
20260502022459 7 245 0.0 0.0 0.00 0.00 0.00 83 1017.8
20260502021956 7 238 0.0 0.0 0.00 0.00 0.00 80 1017.8
20260502021453 7 238 0.0 0.0 0.00 0.00 0.00 79 1018.0
20260502020950 7 238 0.0 0.0 0.00 0.00 0.00 76 1018.1
20260502020448 7 241 0.0 1.6 0.00 0.00 0.00 77 1017.7
20260502015944 7 94 0.0 1.6 0.00 0.00 0.00 77 1017.7
20260502015442 7 94 0.0 0.0 0.00 0.00 0.00 77 1017.5
20260502014939 8 93 0.0 0.0 0.00 0.00 0.00 78 1017.7
20260502014436 8 126 3.2 6.4 0.00 0.00 0.00 73 1017.6
20260502013932 8 42 0.0 0.0 0.00 0.00 0.00 75 1017.4
20260502013427 8 42 0.0 3.2 0.00 0.00 0.00 75 1017.3
20260502012924 8 96 0.0 3.2 0.00 0.00 0.00 74 1017.1
20260502012422 8 353 0.0 1.6 0.00 0.00 0.00 74 1017.1
20260502011919 8 338 0.0 6.4 0.00 0.00 0.00 75 1017.1
20260502011415 8 309 0.0 3.2 0.00 0.00 0.00 73 1016.9
20260502010913 9 345 6.4 9.7 0.00 0.00 0.00 75 1016.6
20260502010409 9 321 3.2 4.8 0.00 0.00 0.00 78 1016.6
20260502005906 9 309 14.5 17.7 0.00 0.00 0.00 76 1016.4
20260502005404 9 278 0.0 6.4 0.00 0.00 0.00 76 1016.4
20260502004901 9 253 1.6 6.4 0.00 0.00 0.00 80 1016.3
20260502004357 9 181 3.2 9.7 0.00 0.00 0.00 85 1016.0
20260502003855 8 135 0.0 0.0 0.00 0.00 0.00 92 1015.8
20260502003352 8 137 0.0 0.0 0.00 0.00 0.00 92 1015.8
20260502002848 8 137 0.0 0.0 0.00 0.00 0.00 92 1015.5
20260502002345 8 137 0.0 0.0 0.00 0.00 0.00 92 1015.3
20260502001842 9 137 0.0 0.0 0.00 0.00 0.00 91 1015.3
20260502001340 9 137 0.0 0.0 0.00 0.00 0.00 91 1015.1
20260502000837 9 137 0.0 0.0 0.00 0.00 0.00 90 1014.9
20260502000335 9 137 0.0 0.0 0.00 0.00 0.00 89 1014.8
20260501235831 9 137 0.0 0.0 0.00 0.00 0.00 88 1014.8
20260501235327 9 136 0.0 0.0 0.00 0.00 0.00 86 1014.7
20260501234822 9 137 0.0 0.0 0.00 0.00 0.00 87 1014.8
20260501234320 10 137 0.0 0.0 0.00 0.00 0.00 86 1014.9
20260501233819 10 136 0.0 0.0 0.00 0.00 0.00 84 1014.6
20260501233315 10 137 0.0 0.0 0.00 0.00 0.00 85 1014.7
20260501232811 10 134 0.0 0.0 0.00 0.00 0.00 81 1014.6
20260501232308 10 134 0.0 0.0 0.00 0.00 0.00 81 1014.5
20260501231806 10 134 0.0 0.0 0.00 0.00 0.00 81 1014.6
20260501231304 10 134 0.0 0.0 0.00 0.00 0.00 82 1014.6
20260501230802 10 134 0.0 0.0 0.00 0.00 0.00 81 1014.4
20260501230300 10 134 1.6 3.2 0.00 0.00 0.00 80 1014.4
20260501225757 10 127 0.0 1.6 0.00 0.00 0.00 81 1014.6
20260501225255 10 199 0.0 0.0 0.00 0.00 0.00 81 1014.6
20260501224751 10 240 0.0 3.2 0.00 0.00 0.00 83 1014.5
20260501224248 10 120 0.0 0.0 0.00 0.00 0.00 85 1014.3
20260501223744 10 121 0.0 0.0 0.00 0.00 0.00 86 1014.5
20260501223241 10 122 0.0 0.0 0.00 0.00 0.00 85 1014.3
20260501222737 10 122 1.6 3.2 0.00 0.00 0.00 86 1014.7
20260501222234 10 110 0.0 0.0 0.00 0.00 0.00 84 1014.5
20260501221731 10 118 0.0 0.0 0.00 0.00 0.00 85 1014.6
20260501221228 10 117 0.0 1.6 0.00 0.00 0.00 80 1014.5
20260501220726 11 318 3.2 6.4 0.00 0.00 0.00 78 1014.6
20260501220223 11 103 3.2 9.7 0.00 0.00 0.00 77 1014.6
20260501215720 11 301 0.0 6.4 0.00 0.00 0.00 76 1014.4
20260501215215 11 262 3.2 9.7 0.00 0.00 0.00 74 1014.4
20260501214710 11 222 0.0 3.2 0.00 0.00 0.00 77 1014.5
20260501214207 11 204 3.2 4.8 0.00 0.00 0.00 76 1014.4
20260501213703 11 85 0.0 3.2 0.00 0.00 0.00 77 1014.5
20260501213159 11 152 3.2 9.7 0.00 0.00 0.00 77 1014.6
20260501212656 11 269 6.4 11.3 0.00 0.00 0.00 75 1014.4
20260501212153 11 341 6.4 9.7 0.00 0.00 0.00 75 1014.4
20260501211649 11 344 1.6 6.4 0.00 0.00 0.00 74 1014.2
20260501211147 12 263 3.2 16.1 0.00 0.00 0.00 72 1014.1
20260501210643 12 96 3.2 12.9 0.00 0.00 0.00 70 1014.1
20260501210140 12 322 3.2 9.7 0.00 0.00 0.00 70 1014.0
20260501205636 12 92 1.6 9.7 0.00 0.00 0.00 70 1013.7
20260501205134 12 79 0.0 6.4 0.00 0.00 0.00 70 1013.9
20260501204630 12 281 1.6 4.8 0.00 0.00 0.00 70 1013.8
20260501204126 12 96 1.6 4.8 0.00 0.00 0.00 69 1013.9
20260501203623 12 121 6.4 11.3 0.00 0.00 0.00 68 1013.6
20260501203121 12 149 1.6 4.8 0.00 0.00 0.00 68 1013.7
20260501202618 13 161 3.2 12.9 0.00 0.00 0.00 67 1013.6
20260501202114 13 298 6.4 11.3 0.00 0.00 0.00 64 1013.6
20260501201611 13 225 3.2 9.7 0.00 0.00 0.00 63 1013.4
20260501201108 13 1 3.2 12.9 0.00 0.00 0.00 61 1013.5
20260501200605 13 191 6.4 16.1 0.00 0.00 0.00 57 1013.4
20260501195600 15 107 4.8 11.3 0.00 0.00 0.00 47 1013.1
20260501195055 15 295 4.8 6.4 0.00 0.00 0.00 46 1013.0
20260501194551 15 331 8.0 12.9 0.00 0.00 0.00 44 1013.1
20260501194047 16 120 1.6 3.2 0.00 0.00 0.00 45 1012.8
20260501193544 16 184 1.6 6.4 0.00 0.00 0.00 41 1012.7
20260501193043 16 335 6.4 9.7 0.00 0.00 0.00 42 1012.6
20260501192539 16 91 11.3 17.7 0.00 0.00 0.00 41 1012.7
20260501192037 16 328 4.8 12.9 0.00 0.00 0.00 41 1012.6
20260501191534 16 338 4.8 9.7 0.00 0.00 0.00 40 1012.8
20260501191031 16 351 4.8 11.3 0.00 0.00 0.00 40 1013.1
20260501190526 17 132 4.8 9.7 0.00 0.00 0.00 37 1012.8
20260501190022 17 221 3.2 11.3 0.00 0.00 0.00 38 1012.8
20260501185519 16 23 6.4 11.3 0.00 0.00 0.00 36 1012.6
20260501185015 16 213 0.0 6.4 0.00 0.00 0.00 41 1012.7
20260501184512 17 166 4.8 14.5 0.00 0.00 0.00 37 1012.6
20260501184011 17 83 1.6 9.7 0.00 0.00 0.00 34 1012.7
20260501183509 18 92 1.6 4.8 0.00 0.00 0.00 36 1012.7
20260501183005 17 87 1.6 9.7 0.00 0.00 0.00 41 1013.0
20260501182502 17 165 4.8 11.3 0.00 0.00 0.00 36 1012.9
20260501181959 17 217 6.4 12.9 0.00 0.00 0.00 35 1013.0
20260501181456 16 101 0.0 3.2 0.00 0.00 0.00 35 1013.2
20260501180953 16 27 6.4 11.3 0.00 0.00 0.00 39 1013.0
20260501180450 16 40 4.8 12.9 0.00 0.00 0.00 35 1013.3
20260501175946 17 178 12.9 20.9 0.00 0.00 0.00 37 1013.0
20260501175443 17 54 8.0 11.3 0.00 0.00 0.00 37 1013.1
20260501174940 16 64 1.6 3.2 0.00 0.00 0.00 35 1012.7
20260501174438 17 213 16.1 22.5 0.00 0.00 0.00 32 1013.1
20260501173935 16 216 4.8 6.4 0.00 0.00 0.00 33 1013.0
20260501173432 17 47 11.3 16.1 0.00 0.00 0.00 32 1013.3
20260501172927 17 73 11.3 16.1 0.00 0.00 0.00 33 1013.2
20260501172424 16 90 8.0 14.5 0.00 0.00 0.00 36 1013.3
20260501171919 16 248 8.0 17.7 0.00 0.00 0.00 36 1013.0
20260501171415 16 64 4.8 12.9 0.00 0.00 0.00 37 1013.3
20260501170912 16 59 6.4 6.4 0.00 0.00 0.00 39 1013.5
20260501170410 16 240 8.0 16.1 0.00 0.00 0.00 38 1013.4
20260501165907 16 315 4.8 6.4 0.00 0.00 0.00 38 1013.5
20260501165405 15 283 0.0 9.7 0.00 0.00 0.00 40 1013.6
20260501164902 16 226 8.0 12.9 0.00 0.00 0.00 36 1013.6
20260501164400 16 231 3.2 3.2 0.00 0.00 0.00 40 1013.4
20260501163856 15 250 6.4 20.9 0.00 0.00 0.00 43 1013.7
20260501163352 15 271 3.2 4.8 0.00 0.00 0.00 52 1013.6
20260501162849 15 233 3.2 14.5 0.00 0.00 0.00 41 1013.9
20260501162346 15 207 4.8 11.3 0.00 0.00 0.00 42 1014.0
20260501161842 15 230 1.6 12.9 0.00 0.00 0.00 48 1013.7
20260501161339 14 307 8.0 9.7 0.00 0.00 0.00 47 1013.9
20260501160836 15 101 4.8 14.5 0.00 0.00 0.00 46 1014.0
20260501160333 15 20 4.8 9.7 0.00 0.00 0.00 49 1013.9